CAPE
0 0 0 0 0 0 0 0 0 0 0 0 12 17 2 6 2 7 4 1 0 0 0 0 0 0 0 0 0 0 4 5 20 0 404 1005 744 568 988 1444 1901 1784 1720 2302 2425 2391 2197 2164 1968 1823 2029 2137 2469 2776 3043 3409 3987 4350 4373 4489 4597 4496 4416
0 0 0 0 0 0 0 0 0 0 0 0 30 25 35 3 2 7 1 2 3 0 0 0 0 0 0 0 0 0 18 4 2 0 0 628 990 950 836 1703 2141 2040 1763 2134 2296 2270 2261 2242 2251 2181 2341 2339 2446 2497 2732 3400 4153 4418 4313 4530 4779 4645 4688
0 0 0 0 0 0 0 0 0 0 0 0 0 24 41 22 17 8 4 0 1 13 0 7 0 0 3 24 3 0 3 4 0 0 0 183 808 642 946 1690 2060 2240 1956 2092 2425 2158 2026 2192 2767 2604 2208 2385 2551 2406 2579 3389 4191 4130 4089 4317 4646 4907 4781
0 0 0 0 0 0 0 0 0 0 0 0 0 6 1 6 30 11 16 2 10 7 0 0 0 0 4 25 4 0 0 0 11 5 0 43 558 709 1125 1742 1975 2256 2283 2267 2305 2126 1988 2396 2786 2582 2298 2445 2508 2349 2716 3206 3723 3936 3796 3788 4428 4962 4885
0 0 0 0 0 0 0 0 0 0 0 0 0 10 10 15 14 9 3 28 0 4 2 0 0 11 3 6 2 0 0 1 3 0 0 7 432 1166 1173 1722 2064 2341 2496 2440 2452 2186 1807 1942 2530 2582 2240 2353 2469 2335 2597 2742 3134 3532 3439 3332 3657 4861 4843
0 0 0 0 0 0 0 0 0 0 0 0 0 0 0 8 18 11 9 7 27 1 0 3 1 2 8 0 0 0 0 1 32 30 20 0 204 1503 1652 1538 1848 2297 2612 2648 2562 2300 1616 1575 2173 2283 2061 2203 2334 2026 2044 2220 1951 2847 2818 2883 3391 4694 5074
0 0 0 0 0 0 0 0 0 0 0 0 0 0 2 3 10 8 27 30 24 6 13 36 1 0 0 9 7 20 10 13 11 6 9 108 1186 1743 1680 1479 1178 1819 2625 2726 2646 2594 2068 1588 2148 2342 1698 1427 1502 1468 1530 1923 1521 1947 2183 2276 2867 4343 5036
0 0 0 0 0 0 0 0 0 0 0 0 0 0 0 0 0 16 15 18 2 9 1 5 0 0 0 1 2 0 6 5 0 5 11 1582 1087 2016 1837 1383 834 1422 2358 2853 3174 3030 3017 2575 2730 2524 1430 1031 1025 1002 1169 1570 1511 1408 1572 1582 2380 4044 5109
0 0 0 0 0 0 0 0 0 0 0 0 0 0 0 1 1 12 14 5 4 21 16 7 4 0 0 0 0 0 0 8 2 10 38 34 20 1839 2141 1781 1514 1766 2046 2917 3568 3645 3866 3498 2248 2782 1921 966 832 929 978 1085 1454 1207 1278 1339 1882 3736 4893
0 0 0 0 0 0 0 0 0 0 0 0 0 0 0 0 0 38 16 0 2 0 90 0 0 0 1 2 0 0 0 0 0 7 31 1241 1079 2882 2951 2293 1652 1864 2832 3583 4282 4179 4522 3388 2648 3605 2924 1136 740 912 1046 988 1180 1328 1220 1319 1466 2942 4491
0 0 0 0 0 0 0 0 0 0 0 0 0 0 0 0 0 0 1 8 31 42 4 2 1 0 1 1 0 0 0 9 22 114 2888 1982 2450 3189 2952 2506 2122 2718 3392 3729 3772 4086 3751 3292 3149 3272 2833 1939 902 1614 1478 1089 1066 1348 1561 1304 1841 2028 4062
1 0 0 0 0 0 0 0 0 0 0 0 0 0 0 0 0 0 0 6 3 0 1 5 16 6 2 0 0 0 0 0 0 11 4023 3244 3081 3322 3162 2734 2630 2782 3150 3387 3739 3858 3807 3702 3711 3673 3302 2720 1953 1893 1542 1517 1184 1146 1498 2042 1990 1978 3162
0 0 0 0 0 0 0 0 0 0 0 0 0 0 0 0 0 0 0 2 4 0 0 0 1 4 8 0 0 1 0 0 3 122 427 1983 3155 3414 3280 3292 3204 3062 2918 3679 3904 3863 4077 4081 3988 3869 3778 3620 3456 2865 2397 2527 1572 1246 1985 2563 2858 2462 3000
0 0 0 0 0 0 0 0 0 0 0 0 0 0 0 0 0 0 0 6 1 0 0 0 0 0 4 0 0 0 0 4 20 0 6 0 55 2123 3608 3731 3395 3582 3674 4084 4252 4160 4472 4194 4223 3979 4112 4150 3805 3641 3428 2990 2508 1666 2060 2912 3817 3344 3409
0 0 0 0 0 0 0 4 0 0 0 0 0 0 0 0 0 0 0 0 0 0 0 0 0 0 0 13 4 0 0 0 0 0 0 0 13 119 1334 3927 3781 3888 4122 4400 4549 4531 4474 4108 4262 4321 4521 4323 4089 3853 3636 3303 3206 2242 2089 3921 3789 4020 4262
2 6 18 3 0 0 0 0 4 0 0 0 0 0 0 0 0 0 0 0 0 0 0 0 0 0 0 0 32 47 16 0 3 0 0 0 0 0 10 1582 4122 4398 4395 4674 4897 4666 4438 4227 4395 4583 4855 4556 4149 3637 3650 3583 3471 2755 2716 3830 4132 4773 4706
63 33 10 2 0 5 0 0 0 0 0 0 0 0 0 0 0 0 0 0 0 0 0 0 0 0 0 0 1 22 134 376 106 6 0 0 1 0 182 940 4230 4379 4331 4797 5232 4782 4610 4453 4742 4740 4916 4496 4506 3944 4148 3932 3849 3381 3547 4381 4962 5200 5204
74 39 12 23 62 13 0 0 0 0 0 0 0 0 0 0 0 0 0 0 0 0 0 0 0 0 0 1 78 116 116 174 388 6 4 0 0 0 84 819 2116 4300 4424 4688 5214 5052 5092 4803 4641 4568 4648 4425 4344 3942 4073 4074 4053 3902 4167 4649 5174 5190 5278
223 231 239 154 61 1 46 23 0 0 0 0 0 3 0 0 4 1 0 0 0 0 0 0 0 0 0 0 0 0 0 19 0 62 24 40 31 21 824 1482 1157 2627 4679 4726 5333 5190 4815 4370 4345 4408 4316 4128 4404 3973 3998 4088 4427 4920 4364 4889 5310 5445 5354
342 411 276 187 38 106 50 14 2 0 0 0 0 0 1 15 3 10 11 0 0 0 0 0 0 0 0 0 0 47 0 0 0 0 0 7 58 1006 1242 1686 2368 3865 4484 4596 4833 5059 4425 4222 4350 4073 4250 4316 4066 3597 3846 4233 4328 4465 4623 4972 5162 5142 4674
336 294 386 145 72 56 24 34 45 0 14 8 0 3 1 3 20 17 18 18 2 0 0 0 0 0 0 0 0 0 0 0 0 0 0 4 486 437 1060 2398 3520 4380 4237 4414 4609 5095 4377 4096 4293 4098 4218 4052 4116 3770 4134 4336 4613 4573 4826 5122 5215 5207 4707
138 297 328 169 138 68 102 1444 458 294 363 208 227 238 127 24 18 11 8 5 27 10 0 0 0 1 7 0 0 0 0 0 0 0 84 88 62 0 646 2564 3110 4619 4544 4301 4596 4533 4206 3984 4059 4186 4028 4335 4345 4192 4671 4793 4864 4812 4973 5145 5180 5168 4742
255 272 252 254 98 196 1203 950 581 485 466 326 391 2 0 2 7 0 8 0 0 0 9 19 12 8 0 0 0 14 123 74 58 150 112 528 213 333 1139 2274 3374 4227 4110 3844 4449 4280 4137 3852 4031 4325 4252 4314 4324 4317 4427 4409 4395 4490 5062 5248 5126 5044 4571
124 305 185 112 64 229 1050 776 664 431 244 203 154 145 26 40 2 0 0 0 0 0 0 0 9 8 0 0 0 3 0 0 6 372 877 675 299 446 1116 1907 3325 3830 4078 4048 4214 3672 3670 4078 4278 4871 4230 3924 3824 4052 4354 4448 4392 4707 5084 5170 5110 4980 4488
14 42 220 204 287 784 618 664 605 402 309 318 368 136 602 1514 1636 1616 1786 1801 96 0 0 0 0 0 0 47 192 1508 1049 163 524 1062 1446 1352 936 830 1120 2036 3123 3591 3633 3783 3618 3588 3946 4570 4023 3701 3136 3568 4215 4457 4564 4500 4698 4765 4765 4933 4862 4792 4124
4 32 30 62 177 818 394 628 340 384 317 385 211 1604 1250 1863 1237 1426 1431 1726 1618 1076 44 0 0 0 2 17 50 1206 2246 2584 2587 2470 2290 2440 2343 2092 1846 3141 3585 3846 3346 3670 3326 3373 3663 3387 2867 3114 4007 4546 4466 4265 4137 4354 4456 4836 5082 4941 4688 4324 3877
0 38 35 38 34 1252 604 664 268 494 374 114 1281 1261 1098 1000 1204 1072 1586 1685 1522 1054 664 259 196 121 0 293 537 734 2548 3073 2989 2672 2478 2444 2390 3166 3735 3540 3365 3005 3210 2963 2599 2915 2896 2918 3188 4326 4645 4384 4063 3952 4087 4608 5034 5302 5140 4689 4292 4041 3784
0 0 0 8 48 910 594 587 467 1086 1142 1410 1519 1224 684 928 1016 1354 1357 1364 1763 1665 1311 1030 441 295 650 1052 1557 2484 2817 2842 2922 3106 2980 3154 3593 3529 3178 2966 2910 2953 3159 3602 3900 3821 3574 4389 4646 4548 4892 4930 4945 4944 4967 5093 5030 4931 4914 4700 4270 3953 3628
60 24 15 1368 844 496 222 540 938 802 934 878 830 805 859 1013 1224 1160 1236 1500 1444 1229 2063 2177 2066 2347 2460 2859 2737 2962 2898 3042 3233 3490 3486 3383 3123 2750 2757 2937 3497 4039 4193 4003 3819 3997 3932 4258 4328 4480 4705 4923 4870 4815 4649 4618 4669 4705 4606 4449 4042 3584 3316
923 814 959 511 612 456 184 128 258 492 659 870 1048 998 1046 1130 1410 1107 1135 1121 936 1546 1805 1924 2045 1934 2069 2285 2324 2478 2605 2733 2811 2898 2972 2989 2950 3080 3116 3168 3089 3117 3078 3585 3767 3995 4407 4613 4822 4928 5138 5133 4750 4456 4235 4040 3994 3931 3623 3482 3466 3303 2841
704 642 590 865 771 468 379 345 328 547 596 891 1144 1166 1019 1078 1116 1242 868 1256 1067 1066 1358 1474 1632 1802 1874 1898 1957 2236 2490 2493 2520 2278 2394 2594 2420 2422 2312 2526 2701 2606 2258 2025 2213 2400 2677 2786 2901 3263 3595 3682 3608 3550 3856 3953 3839 3819 3624 3469 3149 2718 2337
400 597 856 525 932 920 639 642 531 460 402 594 726 780 950 959 634 799 847 913 903 885 934 868 1018 1113 1087 1206 1594 1760 2089 2432 2785 2999 3224 2926 1740 1864 1907 1781 1780 1753 1817 1825 1792 1944 2278 2295 2493 2867 3080 3110 3187 3166 3465 3810 3917 3756 3359 2926 2626 2418 2066
464 553 633 567 756 774 673 685 761 676 476 333 191 209 301 578 455 535 600 691 831 1216 1097 1551 1580 1520 1379 1330 1647 1790 1884 1421 1640 1917 2359 2642 2944 3246 3447 3432 3174 2971 2949 2939 3000 2892 2772 2489 2331 2570 2624 2460 2641 3049 3201 3533 3547 3194 2706 2304 2234 1895 1656
485 257 363 612 452 466 450 482 454 476 408 254 179 114 125 116 376 570 581 590 608 825 876 830 768 726 764 1172 1535 1733 2046 2412 2001 1438 1197 1220 1446 1733 2031 2340 2521 2571 2831 3103 3052 2896 2778 2663 2348 2118 2160 2338 2463 2712 3309 3236 3049 2798 2534 2324 2054 1726 1555
234 418 1050 966 801 663 393 376 222 85 144 146 65 12 14 294 364 363 404 401 415 469 482 451 407 402 474 552 554 604 954 1248 1656 1873 1708 1541 1552 1768 1913 1846 1901 1966 1926 2137 2343 2174 2013 1881 1712 1672 1694 1584 2028 2576 2982 3111 2884 2767 2569 2197 1819 1689 1483
306 179 575 530 196 185 252 140 44 1 56 0 0 66 114 145 182 136 191 336 362 432 438 422 439 470 478 456 460 520 498 464 398 757 1038 1294 1658 1902 2155 2510 2772 2816 2641 2200 1911 1804 1769 1672 1549 1576 1553 1880 2351 2650 3019 2978 2866 2750 2514 2158 1870 1589 1443
221 127 488 427 203 48 0 0 0 1 2 0 17 54 82 132 174 201 242 292 336 322 401 461 426 410 502 518 440 397 429 392 357 311 264 519 536 858 1244 1774 2197 2457 2477 2400 2234 2164 2166 1964 1955 1957 2068 2225 2407 2432 2722 2662 2640 2624 2474 2069 1622 1441 1350
Wind_Speed
nan nan nan nan nan nan nan nan nan nan nan nan nan nan nan nan nan nan nan nan nan nan nan nan nan nan nan nan nan nan nan nan nan nan 19 16 12 9 11 17 18 22 22 24 25 25 24 24 25 24 22 20 18 17 16 15 15 13 12 13 13 13 12
nan nan nan nan nan nan nan nan nan nan nan nan nan nan nan nan nan nan nan nan nan nan nan nan nan nan nan nan nan nan nan nan nan nan nan 18 11 10 14 17 19 21 22 24 26 27 27 27 27 25 24 22 19 18 18 17 15 13 12 13 12 12 13
nan nan nan nan nan nan nan nan nan nan nan nan nan nan nan nan nan nan nan nan nan nan nan nan nan nan nan nan nan nan nan nan nan nan nan 17 14 8 7 18 21 20 19 20 24 27 27 26 26 25 23 24 21 19 18 17 15 12 12 11 11 12 14
nan nan nan nan nan nan nan nan nan nan nan nan nan nan nan nan nan nan nan nan nan nan nan nan nan nan nan nan nan nan nan nan nan nan nan nan 13 7 6 14 21 21 18 20 24 25 27 28 27 25 25 24 24 21 19 16 14 12 11 11 12 13 15
nan nan nan nan nan nan nan nan nan nan nan nan nan nan nan nan nan nan nan nan nan nan nan nan nan nan nan nan nan nan nan nan nan nan nan nan 16 11 8 10 16 20 20 20 22 23 25 26 26 25 24 25 24 21 20 18 15 14 14 13 14 15 16
nan nan nan nan nan nan nan nan nan nan nan nan nan nan nan nan nan nan nan nan nan nan nan nan nan nan nan nan nan nan nan nan nan nan nan nan 18 11 10 11 11 17 18 19 19 19 22 25 27 29 25 23 23 22 19 18 16 14 14 15 14 16 17
nan nan nan nan nan nan nan nan nan nan nan nan nan nan nan nan nan nan nan nan nan nan nan nan nan nan nan nan nan nan nan nan nan nan nan 25 25 12 11 12 11 12 16 16 18 20 23 26 28 30 27 23 22 22 20 18 18 17 15 15 14 15 15
nan nan nan nan nan nan nan nan nan nan nan nan nan nan nan nan nan nan nan nan nan nan nan nan nan nan nan nan nan nan nan nan nan nan nan 32 31 17 13 13 12 11 15 16 15 19 21 23 25 28 28 24 21 20 19 19 20 19 17 15 15 15 15
nan nan nan nan nan nan nan nan nan nan nan nan nan nan nan nan nan nan nan nan nan nan nan nan nan nan nan nan nan nan nan nan nan nan nan nan nan 21 15 12 11 14 16 18 17 18 21 22 25 25 28 27 22 20 19 19 19 19 18 16 16 16 15
nan nan nan nan nan nan nan nan nan nan nan nan nan nan nan nan nan nan nan nan nan nan nan nan nan nan nan nan nan nan nan nan nan nan nan 27 16 19 18 15 13 13 17 20 19 19 21 22 23 23 25 28 25 20 19 19 19 19 20 19 18 18 16
nan nan nan nan nan nan nan nan nan nan nan nan nan nan nan nan nan nan nan nan nan nan nan nan nan nan nan nan nan nan nan nan nan 29 41 30 21 20 19 17 17 18 19 19 19 19 21 22 22 22 25 27 25 19 18 19 19 20 20 20 18 19 19
nan nan nan nan nan nan nan nan nan nan nan nan nan nan nan nan nan nan nan nan nan nan nan nan nan nan nan nan nan nan nan nan nan nan 40 36 30 26 23 20 19 17 18 20 20 20 20 21 21 21 23 25 23 21 19 18 19 19 19 19 19 17 18
nan nan nan nan nan nan nan nan nan nan nan nan nan nan nan nan nan nan nan nan nan nan nan nan nan nan nan nan nan nan nan nan nan 27 26 29 30 29 26 23 21 21 20 19 19 20 20 21 21 22 23 24 21 19 18 17 18 19 18 19 19 18 17
nan nan nan nan nan nan nan nan nan nan nan nan nan nan nan nan nan nan nan nan nan nan nan nan nan nan nan nan nan nan nan nan nan nan nan nan nan 30 30 26 23 22 19 18 19 20 19 20 21 22 24 24 23 21 19 18 17 17 18 19 18 18 18
nan nan nan nan nan nan nan nan nan nan nan nan nan nan nan nan nan nan nan nan nan nan nan nan nan nan nan nan nan nan nan nan nan nan nan nan nan 25 27 26 24 23 19 17 20 20 18 19 21 23 25 24 22 22 21 20 19 18 19 19 19 19 20
nan nan nan nan nan nan nan nan nan nan nan nan nan nan nan nan nan nan nan nan nan nan nan nan nan nan nan nan nan nan nan nan nan nan nan nan nan nan nan 24 24 24 19 17 19 20 19 20 22 24 25 25 23 22 22 21 21 21 21 22 21 22 22
nan nan nan nan nan nan nan nan nan nan nan nan nan nan nan nan nan nan nan nan nan nan nan nan nan nan nan nan nan nan 27 29 28 nan nan nan nan nan 28 28 25 20 16 15 17 19 19 21 23 24 27 26 24 23 24 22 22 23 25 25 25 27 28
nan nan nan nan nan nan nan nan nan nan nan nan nan nan nan nan nan nan nan nan nan nan nan nan nan nan nan nan nan 40 41 35 30 nan nan nan nan nan nan 38 29 21 16 14 16 18 19 21 23 25 27 27 25 25 27 26 26 24 25 27 28 30 31
32 30 26 25 nan nan nan nan nan nan nan nan nan nan nan nan nan nan nan nan nan nan nan nan nan nan nan nan nan nan nan nan nan nan nan nan nan nan 37 31 23 19 14 15 19 18 18 22 25 27 29 28 29 29 29 30 29 27 27 28 28 30 31
35 33 33 31 nan 24 nan nan nan nan nan nan nan nan nan nan nan nan nan nan nan nan nan nan nan nan nan nan nan nan nan nan nan nan nan nan nan 34 32 27 20 15 15 18 20 20 21 25 28 28 30 30 31 32 33 33 32 30 29 28 28 29 31
33 34 31 26 nan nan nan nan nan nan nan nan nan nan nan nan nan nan nan nan nan nan nan nan nan nan nan nan nan nan nan nan nan nan nan nan 32 30 27 24 20 19 20 24 25 25 23 26 30 30 30 31 33 35 37 37 35 35 34 32 31 32 33
34 34 31 29 26 nan 26 41 42 39 39 35 35 35 31 nan nan nan nan nan nan nan nan nan nan nan nan nan nan nan nan nan nan nan nan nan nan nan 29 28 25 25 27 28 30 26 26 27 32 32 32 33 36 38 39 40 38 39 39 37 38 38 38
35 33 31 29 nan 30 43 43 40 42 40 37 42 nan nan nan nan nan nan nan nan nan nan nan nan nan nan nan nan nan 32 nan nan 32 27 26 30 32 32 30 27 26 29 30 31 28 28 28 33 35 34 37 40 40 39 41 41 43 43 42 43 43 44
32 34 32 28 nan 34 40 39 40 41 36 37 34 27 nan nan nan nan nan nan nan nan nan nan nan nan nan nan nan nan nan nan nan 35 31 30 30 33 34 32 31 30 33 34 33 29 28 30 34 37 38 41 42 42 41 42 44 46 46 46 48 48 49
nan nan 31 32 33 40 41 39 37 33 36 26 21 20 31 34 35 38 40 37 nan nan nan nan nan nan nan nan 29 38 42 41 41 39 37 36 33 32 35 37 36 34 33 34 33 31 31 33 34 39 43 45 45 43 45 46 48 50 51 51 52 52 52
nan nan nan nan 35 40 37 35 29 32 22 19 17 29 26 27 31 33 36 37 37 29 nan nan nan nan nan nan nan 36 38 40 41 36 39 40 38 38 42 47 41 37 36 38 37 37 36 34 35 43 48 49 48 48 50 52 52 54 54 54 55 55 55
nan nan nan nan nan 42 32 38 28 29 21 25 29 25 25 28 30 32 34 35 30 27 23 18 24 24 nan 29 31 31 34 36 34 34 36 38 39 45 48 44 41 38 40 39 38 43 41 40 43 47 50 52 52 53 54 55 55 54 55 56 57 57 57
nan nan nan nan nan 44 39 34 29 33 31 34 30 28 22 30 29 28 33 32 31 27 23 24 19 18 27 31 29 30 32 33 34 35 38 40 43 42 41 42 41 41 44 47 48 46 47 48 47 46 50 54 55 57 57 55 55 55 56 57 57 58 58
nan nan nan 53 52 47 44 41 38 34 32 30 29 26 29 27 27 29 28 33 29 26 29 33 32 29 30 34 35 35 36 35 34 35 36 37 37 38 40 44 45 45 45 46 48 49 48 48 48 50 52 57 59 59 56 56 57 57 58 58 59 59 61
58 60 59 53 54 51 47 38 33 35 36 38 40 39 34 31 31 33 34 34 29 29 30 31 32 30 30 34 40 43 40 39 38 36 35 35 38 42 44 45 45 48 49 51 52 53 53 54 53 53 54 55 57 55 54 54 56 57 57 58 58 60 60
48 50 51 54 55 53 49 42 38 39 39 41 40 42 42 39 36 38 35 36 39 37 35 35 37 38 37 38 42 47 45 43 43 43 42 42 40 40 41 43 45 48 52 55 57 57 57 56 55 55 55 54 55 54 53 53 54 54 55 57 59 60 59
44 48 51 50 53 55 52 45 41 40 43 44 44 45 47 45 42 39 39 41 41 39 39 38 38 40 39 37 40 46 48 45 45 46 45 45 45 45 45 46 47 50 53 56 58 58 56 55 55 56 56 55 54 54 53 54 54 55 57 58 59 60 60
54 54 48 48 48 52 54 52 46 43 45 50 51 48 45 45 47 48 47 44 45 45 48 47 44 43 42 41 44 52 55 53 49 47 47 47 49 51 52 53 52 51 53 57 59 61 60 58 58 58 57 56 57 56 55 55 55 55 56 57 57 59 59
44 43 41 40 39 41 46 49 47 47 49 52 53 52 54 53 51 46 45 47 51 53 51 48 45 47 47 48 48 53 56 56 53 49 48 48 51 51 51 52 54 55 56 57 59 61 60 59 59 57 56 55 55 54 54 54 54 53 53 53 54 55 56
39 41 48 45 49 49 45 44 45 nan 49 52 nan nan nan 55 53 50 49 49 52 55 55 52 51 50 52 53 54 54 54 54 53 52 52 51 51 53 53 54 56 57 58 59 59 60 59 58 56 55 53 53 53 54 53 54 53 51 50 51 52 54 55
29 29 30 31 35 39 41 44 nan nan nan nan nan nan 54 57 55 53 52 53 55 54 55 56 54 54 54 56 57 57 56 56 55 56 56 57 56 56 56 57 58 59 60 60 61 60 59 57 55 52 52 52 52 53 53 52 50 49 50 51 52 53 53
34 30 30 35 37 nan nan nan nan nan nan nan nan nan nan 54 56 56 56 55 56 58 58 57 56 56 58 59 59 58 57 57 58 57 57 57 60 60 60 62 61 61 60 60 59 59 58 56 53 52 51 51 50 50 49 49 48 49 49 49 51 52 55
Wind_Direction
nan nan nan nan nan nan nan nan nan nan nan nan nan nan nan nan nan nan nan nan nan nan nan nan nan nan nan nan nan nan nan nan nan nan 278 276 277 290 342 7 353 346 340 336 337 338 338 340 340 340 335 332 328 314 305 301 297 296 302 302 296 291 294
nan nan nan nan nan nan nan nan nan nan nan nan nan nan nan nan nan nan nan nan nan nan nan nan nan nan nan nan nan nan nan nan nan nan nan 285 281 297 344 342 331 338 341 340 341 341 343 343 342 343 339 335 332 325 318 312 308 313 309 304 301 293 300
nan nan nan nan nan nan nan nan nan nan nan nan nan nan nan nan nan nan nan nan nan nan nan nan nan nan nan nan nan nan nan nan nan nan nan 265 264 242 319 321 316 327 337 339 342 344 344 340 340 342 339 338 339 337 329 322 319 316 310 299 298 290 300
nan nan nan nan nan nan nan nan nan nan nan nan nan nan nan nan nan nan nan nan nan nan nan nan nan nan nan nan nan nan nan nan nan nan nan nan 282 284 291 302 310 320 334 342 344 341 340 338 340 341 342 340 346 345 336 327 317 303 298 299 294 295 297
nan nan nan nan nan nan nan nan nan nan nan nan nan nan nan nan nan nan nan nan nan nan nan nan nan nan nan nan nan nan nan nan nan nan nan nan 263 279 282 285 300 313 324 334 338 337 334 335 339 341 340 343 345 347 344 335 324 318 310 303 296 289 289
nan nan nan nan nan nan nan nan nan nan nan nan nan nan nan nan nan nan nan nan nan nan nan nan nan nan nan nan nan nan nan nan nan nan nan nan 259 263 283 276 284 300 312 325 331 330 327 336 346 345 339 340 345 351 349 338 334 326 320 309 297 289 289
nan nan nan nan nan nan nan nan nan nan nan nan nan nan nan nan nan nan nan nan nan nan nan nan nan nan nan nan nan nan nan nan nan nan nan 291 281 264 265 275 270 285 308 322 326 329 333 341 343 342 338 340 342 349 353 347 347 343 334 323 306 290 292
nan nan nan nan nan nan nan nan nan nan nan nan nan nan nan nan nan nan nan nan nan nan nan nan nan nan nan nan nan nan nan nan nan nan nan 263 268 253 245 257 274 289 302 313 312 321 326 328 330 336 335 334 336 341 349 353 354 350 342 330 316 307 302
nan nan nan nan nan nan nan nan nan nan nan nan nan nan nan nan nan nan nan nan nan nan nan nan nan nan nan nan nan nan nan nan nan nan nan nan nan 223 225 239 255 275 292 302 305 308 312 317 325 326 327 328 333 332 341 350 345 343 338 331 324 319 318
nan nan nan nan nan nan nan nan nan nan nan nan nan nan nan nan nan nan nan nan nan nan nan nan nan nan nan nan nan nan nan nan nan nan nan 252 237 214 219 227 234 261 270 277 285 294 298 314 319 315 318 324 329 330 338 343 337 331 333 329 332 327 325
nan nan nan nan nan nan nan nan nan nan nan nan nan nan nan nan nan nan nan nan nan nan nan nan nan nan nan nan nan nan nan nan nan 235 239 254 248 223 217 223 227 237 255 274 287 289 298 312 314 313 318 321 326 321 333 339 330 325 322 325 324 328 325
nan nan nan nan nan nan nan nan nan nan nan nan nan nan nan nan nan nan nan nan nan nan nan nan nan nan nan nan nan nan nan nan nan nan 246 253 252 239 227 226 231 240 247 258 275 287 297 303 305 307 312 316 319 322 332 331 329 324 318 322 324 320 315
nan nan nan nan nan nan nan nan nan nan nan nan nan nan nan nan nan nan nan nan nan nan nan nan nan nan nan nan nan nan nan nan nan 233 241 248 251 249 245 236 233 240 252 262 276 287 294 300 304 308 307 309 311 313 322 324 327 329 318 315 317 319 312
nan nan nan nan nan nan nan nan nan nan nan nan nan nan nan nan nan nan nan nan nan nan nan nan nan nan nan nan nan nan nan nan nan nan nan nan nan 240 240 238 240 248 256 269 279 287 292 298 301 305 302 305 312 313 315 320 322 325 312 309 307 314 314
nan nan nan nan nan nan nan nan nan nan nan nan nan nan nan nan nan nan nan nan nan nan nan nan nan nan nan nan nan nan nan nan nan nan nan nan nan 233 233 237 245 252 260 273 283 291 295 296 300 298 297 303 307 311 312 319 319 321 317 301 307 308 307
nan nan nan nan nan nan nan nan nan nan nan nan nan nan nan nan nan nan nan nan nan nan nan nan nan nan nan nan nan nan nan nan nan nan nan nan nan nan nan 228 241 252 262 277 292 301 301 297 296 295 295 301 305 306 309 314 316 314 309 303 303 297 302
nan nan nan nan nan nan nan nan nan nan nan nan nan nan nan nan nan nan nan nan nan nan nan nan nan nan nan nan nan nan 238 228 223 nan nan nan nan nan 216 223 239 249 265 285 298 301 292 287 292 299 295 296 298 298 298 299 301 305 303 297 291 293 296
nan nan nan nan nan nan nan nan nan nan nan nan nan nan nan nan nan nan nan nan nan nan nan nan nan nan nan nan nan 240 244 239 236 nan nan nan nan nan nan 222 224 230 244 259 272 281 281 284 289 288 288 289 288 288 288 292 297 294 294 292 291 294 293
224 227 230 228 nan nan nan nan nan nan nan nan nan nan nan nan nan nan nan nan nan nan nan nan nan nan nan nan nan nan nan nan nan nan nan nan nan nan 236 240 224 216 235 252 262 267 273 276 277 279 282 284 284 286 287 291 290 289 292 292 291 293 296
221 224 232 229 nan 225 nan nan nan nan nan nan nan nan nan nan nan nan nan nan nan nan nan nan nan nan nan nan nan nan nan nan nan nan nan nan nan 230 228 233 229 230 243 250 259 263 261 268 274 277 280 282 284 287 288 287 289 292 293 293 297 298 302
219 225 228 227 nan nan nan nan nan nan nan nan nan nan nan nan nan nan nan nan nan nan nan nan nan nan nan nan nan nan nan nan nan nan nan nan 241 239 227 226 235 239 243 248 252 254 256 264 270 272 274 278 280 283 283 284 286 290 292 293 299 299 303
224 222 225 225 222 nan 225 226 222 225 220 217 219 223 213 nan nan nan nan nan nan nan nan nan nan nan nan nan nan nan nan nan nan nan nan nan nan nan 235 233 233 239 242 247 254 258 260 262 266 268 273 274 275 277 279 284 288 289 291 293 296 299 302
226 223 219 223 nan 224 231 232 224 222 227 230 232 nan nan nan nan nan nan nan nan nan nan nan nan nan nan nan nan nan 236 nan nan 240 232 227 233 238 237 236 238 242 244 247 256 258 258 262 265 268 273 273 272 274 278 283 285 286 289 292 295 298 299
223 224 225 222 nan 231 243 238 238 236 233 238 241 244 nan nan nan nan nan nan nan nan nan nan nan nan nan nan nan nan nan nan nan 237 234 233 237 239 237 234 235 238 243 245 253 259 262 261 265 267 269 267 268 271 275 279 282 285 288 290 291 293 295
nan nan 223 221 224 234 239 236 236 238 237 238 255 253 242 226 214 212 210 207 nan nan nan nan nan nan nan nan 226 220 218 234 239 233 230 233 235 235 237 236 236 236 241 244 249 253 250 253 260 264 265 267 270 271 272 275 279 283 286 287 289 289 291
nan nan nan nan 222 233 239 238 228 239 243 251 244 244 246 239 225 220 215 216 222 230 nan nan nan nan nan nan nan 226 229 232 235 230 230 234 233 232 233 237 236 234 237 241 244 249 248 249 250 256 261 265 268 269 272 275 278 280 282 284 285 287 290
nan nan nan nan nan 239 239 240 238 243 235 239 238 242 243 240 234 226 223 224 229 242 248 243 234 234 nan 232 227 225 227 231 232 228 227 229 232 234 236 237 235 232 234 240 244 250 252 252 250 253 261 265 266 267 271 274 276 278 280 282 286 288 289
nan nan nan nan nan 240 241 238 234 243 234 231 235 240 243 240 233 233 232 231 231 237 250 262 266 253 248 247 240 234 232 233 232 229 228 229 231 232 232 235 235 234 235 238 242 247 249 250 253 258 258 261 264 267 270 271 273 275 277 280 282 282 281
nan nan nan 235 240 244 244 234 233 239 235 239 241 244 242 239 243 239 236 232 233 237 243 248 259 263 258 250 241 233 232 234 233 230 230 230 229 231 233 235 236 236 237 241 242 245 249 255 255 255 256 259 261 263 265 268 271 274 275 278 280 279 280
227 227 232 237 237 242 247 249 238 237 239 240 235 239 242 235 236 241 236 239 232 233 236 248 253 257 257 249 237 230 227 231 231 231 233 233 234 236 236 238 237 237 238 241 244 247 247 249 250 252 255 258 260 262 265 268 272 275 278 280 281 282 284
222 224 228 234 239 243 250 252 248 242 241 243 243 239 236 237 233 238 239 236 233 226 233 241 245 250 252 245 235 228 224 225 228 230 232 234 235 237 239 241 242 241 240 240 242 245 247 249 252 254 255 256 260 263 265 269 272 274 275 276 277 279 283
221 227 231 235 236 238 241 245 248 245 245 249 248 239 235 237 237 235 236 232 236 238 241 239 242 245 248 245 235 227 223 223 224 226 229 230 232 235 237 239 242 242 241 241 243 245 248 251 253 254 256 257 260 262 264 265 266 268 271 275 278 279 281
226 237 241 240 242 243 241 241 242 244 243 240 239 244 248 245 242 238 236 237 239 234 232 232 238 242 242 239 230 223 219 219 222 224 227 229 229 228 228 229 233 236 237 238 240 242 244 247 249 252 256 259 262 263 262 264 267 268 270 275 276 279 280
228 234 239 248 239 241 241 239 240 243 244 243 243 240 237 236 237 239 239 236 231 229 229 233 235 235 232 230 227 223 219 219 222 225 227 230 230 230 229 229 231 232 233 236 238 241 243 245 249 252 255 258 261 263 265 271 274 272 272 274 277 278 280
216 223 238 232 237 239 240 244 239 nan 241 243 nan nan nan 231 231 231 231 230 228 226 226 226 227 227 226 224 224 224 220 219 222 225 228 230 229 229 229 230 230 232 234 235 238 240 243 245 248 251 253 257 259 263 267 273 274 272 271 272 273 274 276
210 210 227 229 232 240 239 238 nan nan nan nan nan nan 231 228 226 226 227 226 225 224 223 223 221 221 221 220 220 220 218 218 221 225 226 227 228 229 229 228 228 230 233 235 237 240 242 243 245 248 253 257 261 265 267 268 269 269 270 271 272 276 280
214 215 216 228 231 nan nan nan nan nan nan nan nan nan nan 227 224 224 224 223 222 221 221 220 217 214 213 214 215 216 217 217 218 221 224 225 225 225 225 224 225 227 229 232 236 239 241 243 245 250 254 258 260 262 263 265 266 268 270 272 275 278 278